| time (UTC) | temp C | wind direction | speed KPH | gust KPH | rain 1hr cm | rain 24hr cm | rain mn cm | humidity % | barometer mb |
| 20260507233411 | 7 | 291 | 3.2 | 9.7 | 0.00 | 0.18 | 0.18 | 67 | 1006.6 |
| 20260507231911 | 7 | 305 | 3.2 | 9.7 | 0.00 | 0.18 | 0.18 | 66 | 1006.5 |
| 20260507230411 | 7 | 319 | 4.8 | 8.0 | 0.00 | 0.18 | 0.18 | 67 | 1006.5 |
| 20260507224911 | 7 | 304 | 6.4 | 11.3 | 0.00 | 0.18 | 0.18 | 63 | 1006.2 |
| 20260507223411 | 8 | 330 | 8.0 | 16.1 | 0.00 | 0.18 | 0.18 | 60 | 1006.1 |
| 20260507221911 | 8 | 320 | 8.0 | 20.9 | 0.00 | 0.18 | 0.18 | 61 | 1006.1 |
| 20260507220411 | 8 | 278 | 6.4 | 14.5 | 0.00 | 0.18 | 0.18 | 67 | 1005.9 |
| 20260507214911 | 7 | 283 | 6.4 | 12.9 | 0.00 | 0.18 | 0.18 | 68 | 1005.7 |
| 20260507213411 | 7 | 273 | 11.3 | 17.7 | 0.03 | 0.18 | 0.18 | 68 | 1005.5 |
| 20260507211911 | 8 | 252 | 8.0 | 20.9 | 0.08 | 0.18 | 0.18 | 70 | 1005.5 |
| 20260507210411 | 7 | 274 | 4.8 | 8.0 | 0.08 | 0.18 | 0.18 | 76 | 1005.4 |
| 20260507204911 | 6 | 247 | 3.2 | 8.0 | 0.13 | 0.18 | 0.18 | 80 | 1005.4 |
| 20260507203411 | 6 | 273 | 14.5 | 16.1 | 0.13 | 0.15 | 0.15 | 73 | 1005.6 |
| 20260507201911 | 7 | 273 | 4.8 | 12.9 | 0.08 | 0.10 | 0.10 | 74 | 1005.2 |
| 20260507200411 | 7 | 321 | 4.8 | 20.9 | 0.08 | 0.10 | 0.10 | 73 | 1005.4 |
| 20260507194911 | 7 | 359 | 8.0 | 12.9 | 0.03 | 0.05 | 0.05 | 72 | 1005.3 |
| 20260507193411 | 8 | 325 | 9.7 | 16.1 | 0.00 | 0.03 | 0.03 | 70 | 1005.2 |
| 20260507191911 | 10 | 314 | 9.7 | 22.5 | 0.00 | 0.03 | 0.03 | 57 | 1004.8 |
| 20260507190411 | 9 | 237 | 4.8 | 16.1 | 0.00 | 0.03 | 0.03 | 64 | 1004.6 |
| 20260507184911 | 8 | 237 | 6.4 | 12.9 | 0.00 | 0.03 | 0.03 | 68 | 1004.8 |
| 20260507183411 | 8 | 243 | 3.2 | 8.0 | 0.00 | 0.03 | 0.03 | 71 | 1004.8 |
| 20260507181911 | 8 | 281 | 4.8 | 9.7 | 0.00 | 0.03 | 0.03 | 69 | 1004.8 |
| 20260507180411 | 9 | 358 | 8.0 | 17.7 | 0.00 | 0.03 | 0.03 | 68 | 1004.7 |
| 20260507174911 | 10 | 276 | 11.3 | 35.4 | 0.00 | 0.03 | 0.03 | 60 | 1004.4 |
| 20260507173411 | 10 | 198 | 9.7 | 22.5 | 0.00 | 0.03 | 0.03 | 57 | 1004.2 |
| 20260507171911 | 10 | 244 | 8.0 | 19.3 | 0.00 | 0.03 | 0.03 | 58 | 1004.3 |
| 20260507170411 | 10 | 221 | 8.0 | 17.7 | 0.00 | 0.03 | 0.03 | 56 | 1004.4 |
| 20260507164911 | 11 | 227 | 8.0 | 17.7 | 0.00 | 0.03 | 0.03 | 56 | 1004.5 |
| 20260507163411 | 12 | 195 | 9.7 | 19.3 | 0.00 | 0.03 | 0.03 | 55 | 1004.6 |
| 20260507161911 | 12 | 221 | 8.0 | 24.1 | 0.00 | 0.13 | 0.03 | 53 | 1004.8 |
| 20260507160411 | 11 | 220 | 9.7 | 20.9 | 0.00 | 0.13 | 0.03 | 58 | 1004.9 |
| 20260507154911 | 10 | 272 | 8.0 | 17.7 | 0.00 | 0.13 | 0.03 | 64 | 1005.1 |
| 20260507153411 | 10 | 264 | 9.7 | 22.5 | 0.00 | 0.13 | 0.03 | 61 | 1005.2 |
| 20260507151911 | 10 | 259 | 6.4 | 20.9 | 0.00 | 0.28 | 0.03 | 62 | 1005.3 |
| 20260507150411 | 9 | 225 | 6.4 | 11.3 | 0.00 | 0.28 | 0.03 | 69 | 1005.5 |
| 20260507144911 | 8 | 214 | 6.4 | 17.7 | 0.00 | 0.28 | 0.03 | 72 | 1005.5 |
| 20260507143444 | 7 | 255 | 8.0 | 19.3 | 0.03 | 0.28 | 0.03 | 71 | 1005.6 |
| 20260507143411 | 7 | 255 | 8.0 | 19.3 | 0.03 | 0.28 | 0.03 | 71 | 1005.6 |
| 20260507141911 | 7 | 264 | 8.0 | 22.5 | 0.03 | 0.41 | 0.03 | 68 | 1005.7 |
| 20260507140411 | 6 | 285 | 6.4 | 14.5 | 0.03 | 0.41 | 0.03 | 74 | 1005.7 |
| 20260507134911 | 6 | 285 | 4.8 | 20.9 | 0.03 | 0.41 | 0.03 | 76 | 1005.7 |
| 20260507133411 | 6 | 243 | 8.0 | 17.7 | 0.00 | 0.38 | 0.00 | 77 | 1005.8 |
| 20260507131911 | 6 | 239 | 8.0 | 12.9 | 0.00 | 0.53 | 0.00 | 78 | 1005.8 |
| 20260507130411 | 6 | 197 | 11.3 | 20.9 | 0.00 | 0.53 | 0.00 | 78 | 1005.9 |
| 20260507124911 | 6 | 238 | 11.3 | 27.4 | 0.00 | 0.53 | 0.00 | 81 | 1005.9 |
| 20260507123411 | 6 | 243 | 4.8 | 16.1 | 0.00 | 0.53 | 0.00 | 83 | 1005.9 |
| 20260507121911 | 6 | 236 | 4.8 | 12.9 | 0.00 | 0.64 | 0.00 | 82 | 1005.8 |
| 20260507120411 | 6 | 229 | 4.8 | 8.0 | 0.00 | 0.64 | 0.00 | 83 | 1005.7 |
| 20260507114911 | 6 | 215 | 4.8 | 9.7 | 0.00 | 0.64 | 0.00 | 83 | 1005.7 |
| 20260507113411 | 6 | 222 | 3.2 | 9.7 | 0.00 | 0.64 | 0.00 | 83 | 1005.7 |
| 20260507111911 | 6 | 209 | 1.6 | 8.0 | 0.00 | 0.74 | 0.00 | 84 | 1005.6 |
| 20260507110411 | 5 | 219 | 3.2 | 8.0 | 0.00 | 0.74 | 0.00 | 85 | 1005.7 |
| 20260507104911 | 5 | 217 | 4.8 | 11.3 | 0.00 | 0.74 | 0.00 | 85 | 1005.9 |
| 20260507103411 | 5 | 217 | 3.2 | 9.7 | 0.00 | 0.74 | 0.00 | 85 | 1005.8 |
| 20260507101911 | 5 | 258 | 3.2 | 8.0 | 0.00 | 0.84 | 0.00 | 86 | 1005.8 |
| 20260507100411 | 5 | 224 | 1.6 | 6.4 | 0.00 | 0.84 | 0.00 | 86 | 1005.8 |
| 20260507094911 | 5 | 199 | 3.2 | 9.7 | 0.00 | 0.84 | 0.00 | 85 | 1005.6 |
| 20260507093411 | 5 | 236 | 1.6 | 6.4 | 0.00 | 0.84 | 0.00 | 85 | 1005.7 |
| 20260507091911 | 5 | 233 | 3.2 | 8.0 | 0.00 | 0.89 | 0.00 | 86 | 1005.7 |
| 20260507090411 | 5 | 220 | 1.6 | 6.4 | 0.00 | 0.89 | 0.00 | 86 | 1005.8 |
| 20260507084911 | 5 | 220 | 3.2 | 4.8 | 0.00 | 0.89 | 0.00 | 86 | 1005.8 |
| 20260507083411 | 5 | 203 | 3.2 | 4.8 | 0.00 | 0.89 | 0.00 | 86 | 1005.8 |
| 20260507081911 | 5 | 234 | 1.6 | 4.8 | 0.00 | 0.89 | 0.00 | 86 | 1005.9 |
| 20260507080411 | 5 | 241 | 3.2 | 9.7 | 0.00 | 0.89 | 0.00 | 85 | 1005.9 |
| 20260507074911 | 5 | 243 | 4.8 | 9.7 | 0.00 | 0.89 | 0.00 | 84 | 1005.9 |
| 20260507073411 | 5 | 217 | 3.2 | 6.4 | 0.00 | 0.89 | 0.00 | 84 | 1006.0 |
| 20260507071911 | 5 | 238 | 3.2 | 6.4 | 0.00 | 0.89 | 0.00 | 84 | 1006.0 |
| 20260507070411 | 5 | 236 | 3.2 | 8.0 | 0.00 | 0.89 | 0.00 | 84 | 1005.9 |
| 20260507064911 | 5 | 228 | 3.2 | 4.8 | 0.00 | 0.89 | 0.00 | 83 | 1005.9 |
| 20260507063411 | 5 | 244 | 3.2 | 4.8 | 0.00 | 0.89 | 0.00 | 83 | 1006.0 |
| 20260507061911 | 5 | 240 | 3.2 | 9.7 | 0.00 | 0.89 | 0.00 | 83 | 1006.1 |
| 20260507060411 | 5 | 231 | 3.2 | 9.7 | 0.00 | 0.89 | 0.00 | 84 | 1006.3 |
| 20260507054911 | 5 | 245 | 3.2 | 9.7 | 0.00 | 0.89 | 0.00 | 84 | 1006.4 |
| 20260507053411 | 5 | 268 | 3.2 | 8.0 | 0.00 | 0.89 | 0.00 | 84 | 1006.6 |
| 20260507051911 | 5 | 220 | 3.2 | 11.3 | 0.00 | 0.89 | 0.00 | 86 | 1006.8 |
| 20260507050412 | 4 | 213 | 1.6 | 6.4 | 0.00 | 0.89 | 0.00 | 86 | 1007.0 |
| 20260507044912 | 4 | 220 | 1.6 | 4.8 | 0.00 | 0.89 | 0.00 | 86 | 1007.2 |
| 20260507043412 | 4 | 207 | 3.2 | 6.4 | 0.00 | 0.89 | 0.00 | 86 | 1007.2 |
| 20260507040412 | 3 | 210 | 0.0 | 3.2 | 0.00 | 0.89 | 0.89 | 86 | 1007.5 |
| 20260507034912 | 3 | 193 | 0.0 | 3.2 | 0.00 | 0.89 | 0.89 | 86 | 1007.5 |
| 20260507033412 | 4 | 187 | 0.0 | 0.0 | 0.00 | 0.89 | 0.89 | 86 | 1007.5 |
| 20260507031912 | 4 | 178 | 0.0 | 0.0 | 0.00 | 0.89 | 0.89 | 86 | 1007.7 |
| 20260507030412 | 4 | 217 | 0.0 | 0.0 | 0.00 | 0.89 | 0.89 | 85 | 1007.9 |
| 20260507024912 | 4 | 217 | 0.0 | 0.0 | 0.00 | 0.89 | 0.89 | 84 | 1008.1 |
| 20260507023412 | 5 | 221 | 0.0 | 0.0 | 0.00 | 0.89 | 0.89 | 85 | 1008.2 |
| 20260507021912 | 5 | 216 | 0.0 | 0.0 | 0.00 | 0.89 | 0.89 | 85 | 1008.3 |
| 20260507020412 | 5 | 248 | 0.0 | 0.0 | 0.00 | 0.89 | 0.89 | 85 | 1008.5 |
| 20260507014912 | 5 | 248 | 0.0 | 0.0 | 0.00 | 0.89 | 0.89 | 84 | 1008.4 |
| 20260507013412 | 5 | 248 | 0.0 | 0.0 | 0.00 | 0.89 | 0.89 | 83 | 1008.5 |
| 20260507011912 | 5 | 248 | 0.0 | 0.0 | 0.00 | 0.89 | 0.89 | 83 | 1008.3 |
| 20260507010412 | 5 | 248 | 0.0 | 0.0 | 0.00 | 0.89 | 0.89 | 83 | 1008.3 |
| 20260507004912 | 5 | 248 | 0.0 | 0.0 | 0.00 | 0.89 | 0.89 | 82 | 1008.2 |
| 20260507003412 | 5 | 248 | 0.0 | 0.0 | 0.00 | 0.89 | 0.89 | 81 | 1008.3 |
| 20260507001912 | 5 | 248 | 0.0 | 0.0 | 0.00 | 0.89 | 0.89 | 81 | 1008.2 |
| 20260507000412 | 5 | 248 | 0.0 | 0.0 | 0.00 | 0.89 | 0.89 | 80 | 1008.2 |
| 20260506234912 | 5 | 248 | 0.0 | 0.0 | 0.00 | 0.89 | 0.89 | 78 | 1008.0 |